Quillayute, WA
on Thursday, December 13, 2012

Thursday
Previous Day Next Day
Daily Summary
 ActualAverageRecord
Temperature
Mean Temperature °F 40°F  
Max Temperature 43°F 46°F 62°F (1997)
Min Temperature 39°F 34°F 20°F (1978)
Degree Days
Heating Degree Days 24 25  
Month to date heating degree days 317  
Since 1 July heating degree days 2031  
Cooling Degree Days 0 0  
Month to date cooling degree days 0  
Year to date cooling degree days 19  
Moisture
Dew Point 39°F   
Average Humidity 92    
Maximum Humidity 100    
Minimum Humidity 81    
Precipitation
Precipitation 0.55 in 0.41 in 4.46 in (1979)
Month to date precipitation 5.74  
Year to date precipitation 92.29  
Wind
Wind Speed 4 mph   
Max Wind Speed 10 mph   
Max Gust Speed 16 mph   
Visibility 5 miles   
Events Rain   

Key: T is trace of precipitation, MM is missing value
Source: NWS Daily Summary
Time(PST)TemperatureDew PointHumidity Pressure Visibility Wind DirectionWind SpeedGust SpeedPrecipitationEvents Conditions
12:24 AM 39.2°F 37.4°F 93% 30.00 in 7.0 miles Calm Calm - N/A   Overcast
12:53 AM 39.0°F 37.9°F 96% 30.01 in 6.0 miles Calm Calm - N/A   Overcast
1:53 AM 39.9°F 39.0°F 97% 30.02 in 6.0 miles Calm Calm - 0.00 in Rain Light Rain
2:53 AM 39.0°F 37.9°F 96% 30.02 in 7.0 miles Calm Calm - 0.00 in   Overcast
3:53 AM 39.9°F 37.9°F 93% 30.03 in 7.0 miles East 3.5 mph - N/A   Overcast
4:53 AM 39.0°F 37.9°F 96% 29.99 in 7.0 miles East 5.8 mph - N/A   Mostly Cloudy
5:53 AM 39.9°F 37.0°F 89% 29.99 in 7.0 miles East 3.5 mph - N/A   Overcast
6:53 AM 39.9°F 37.0°F 89% 29.98 in 8.0 miles Calm Calm - N/A   Overcast
7:53 AM 39.9°F 36.0°F 86% 29.97 in 7.0 miles ESE 4.6 mph - N/A   Overcast
8:53 AM 39.9°F 37.0°F 89% 29.96 in 6.0 miles Calm Calm - N/A   Overcast
9:53 AM 41.0°F 37.9°F 89% 29.95 in 6.0 miles SE 3.5 mph - N/A   Overcast
10:53 AM 42.1°F 37.9°F 85% 29.94 in 6.0 miles SSE 3.5 mph - N/A   Overcast
11:53 AM 43.0°F 39.0°F 86% 29.92 in 5.0 miles SSE 3.5 mph - 0.00 in Rain Light Rain
12:17 PM 42.8°F 37.4°F 81% 29.89 in 6.0 miles SE 8.1 mph - 0.00 in   Overcast
12:44 PM 42.8°F 37.4°F 81% 29.88 in 1.8 miles SSE 8.1 mph - N/A Rain Light Rain
12:53 PM 42.1°F 37.9°F 85% 29.88 in 2.5 miles Variable 4.6 mph - 0.01 in Rain Light Rain
1:29 PM 42.8°F 39.2°F 87% 29.86 in 5.0 miles Variable 4.6 mph - 0.02 in Rain Light Rain
1:53 PM 41.0°F 39.0°F 93% 29.85 in 4.0 miles Variable 5.8 mph - 0.03 in Rain Light Rain
2:05 PM 41.0°F 39.2°F 93% 29.84 in 2.5 miles SSE 4.6 mph - 0.01 in Rain Light Rain
2:25 PM 41.0°F 39.2°F 93% 29.84 in 1.8 miles SSE 8.1 mph - N/A Rain Light Rain
3:53 PM 41.0°F 39.2°F 93% 29.81 in 1.8 miles SSE 3.5 mph - N/A Rain Light Rain
4:14 PM 41.0°F 39.2°F 93% 29.81 in 2.5 miles Variable 4.6 mph - 0.03 in Rain Light Rain
4:53 PM 41.0°F 39.2°F 93% 29.79 in 2.5 miles SE 5.8 mph - N/A Rain Light Rain
5:21 PM 41.0°F 39.2°F 93% 29.79 in 3.0 miles SSE 5.8 mph - 0.05 in Rain Light Rain
5:53 PM 41.0°F 39.9°F 96% 29.79 in 3.0 miles SE 6.9 mph - 0.08 in Rain Light Rain
6:53 PM 41.0°F 39.9°F 96% 29.78 in 4.0 miles SE 5.8 mph - 0.07 in Rain Light Rain
7:53 PM 41.0°F 39.9°F 96% 29.77 in 2.5 miles SE 8.1 mph - 0.07 in Rain Light Rain
8:16 PM 41.0°F 39.2°F 93% 29.76 in 3.0 miles SE 8.1 mph - 0.03 in Rain Light Rain
8:53 PM 39.9°F 39.0°F 97% 29.76 in 4.0 miles SE 4.6 mph - 0.05 in Rain Light Rain
9:25 PM 39.2°F 39.2°F 100% 29.75 in 5.0 miles ESE 5.8 mph - 0.02 in Rain Light Rain
9:44 PM 39.2°F 39.2°F 100% 29.75 in 4.0 miles ESE 4.6 mph - N/A Rain Light Rain
9:53 PM 39.9°F 39.0°F 97% 29.75 in 3.0 miles ESE 8.1 mph - 0.03 in Rain Light Rain
10:53 PM 39.9°F 39.0°F 97% 29.75 in 4.0 miles East 6.9 mph - 0.02 in   Overcast
11:05 PM 39.2°F 39.2°F 100% 29.74 in 2.5 miles East 5.8 mph - N/A   Overcast
11:12 PM 39.2°F 39.2°F 100% 29.74 in 4.0 miles ESE 4.6 mph - N/A   Overcast
11:53 PM 41.0°F 39.0°F 93% 29.75 in 8.0 miles East 4.6 mph - N/A   Overcast
Moon Phase
Dec. 13 Dec. 20 Dec. 28 Jan. 04 Jan. 11
Sunrise:08:00 AM (PST) Moon Rise:08:12 AM (PST)12/13
Sunset:04:25 PM (PST) Moon Set:05:16 PM (PST)12/13

Copyright © 2014 The Weather Underground, Inc.